Starlink 5684

operational
NORAD ID: 55453 Int'l Des: 2023-015 Owner: SPXS Country: US Constellation: starlink
LEOCIRCULAR

About Starlink 5684

Description loading...

Live Position

Loading 3D Globe...

Upcoming Passes

Altitude History

Altitude vs Time

uPlot chart will show altitude changes over time

Two-Line Element Set

1 55453U 23015E 25350.47958691 -.00002422 00000-0 -16427-3 0 9992
2 55453 43.0043 58.4229 0001153 265.7050 94.3660 15.02543942158235
Epoch: Dec 16, 2025 • Age: 19 hours

Current Status

Altitude 559.1 km
Velocity 7.59 km/s
Sub-Earth Point 22.41°N, 108.09°W
Launch Date Feb 2, 2023
Age 2.8 years
Type internet

Technical Details

Classification Payload
Mass 305.00 kg
Dry Mass 290.00 kg
Total Mass 305.00 kg
Length 0.20 m
Diameter 2.80 m
Span 9.00 m
Shape Box + pan
Manufacturer SPXS
Bus Type Starlink
Phase Status In Orbit
Owner/State SPXS/US

Large Constellations

Loading constellations...